Wind_Speed
33 33 33 34 33 33 33 33 33 32 32 32 30 29 29 33 36 35 33 33 33 31 30 32 34 37 38 35 35 36 34 31 32 34 34 32 32 33 34 37 38 34 32 35 37 38 38 37 38 39 39 40 41 42 41 41 40 39 39 39 40 43 48 53 57 61 66 73 78 79 78 75 72 70 67 65 67 68 67 65 63 62 60 58 58 60
34 33 34 34 34 34 34 34 34 33 33 32 31 31 31 36 40 37 34 33 32 32 33 34 35 37 39 39 38 38 35 32 31 33 33 30 31 33 33 36 39 36 33 36 37 38 38 36 36 37 38 39 40 41 40 40 39 38 39 38 38 39 42 47 53 58 62 67 74 79 81 80 76 74 72 69 68 67 66 64 63 62 62 61 60 60
34 34 34 34 34 34 35 35 35 34 34 33 33 34 35 41 43 38 35 33 32 33 34 34 34 36 39 41 42 40 35 32 30 30 30 30 31 32 32 35 39 38 36 37 38 38 37 35 35 35 37 38 39 39 39 39 38 37 37 37 36 37 38 41 46 53 59 63 68 75 80 83 81 79 77 74 72 69 66 64 64 63 64 64 64 62
34 35 35 36 36 36 36 36 34 34 35 35 36 37 39 44 44 38 35 35 34 34 35 35 34 35 37 40 43 42 37 32 29 28 28 30 31 31 31 34 38 39 38 38 38 37 36 34 34 34 36 37 37 37 38 38 37 36 35 34 34 35 36 36 39 44 52 59 64 69 75 81 84 83 81 79 76 74 71 67 65 65 66 67 68 68
34 35 35 36 36 36 36 36 35 36 38 39 39 40 41 44 43 38 37 37 35 34 35 37 35 35 36 38 42 43 41 37 32 29 28 29 31 32 32 34 38 39 38 38 37 36 35 34 33 33 35 36 36 36 36 37 36 35 34 32 32 33 35 35 35 37 44 52 59 64 68 74 81 84 84 83 80 77 76 73 69 68 69 70 70 71
37 37 37 37 36 36 36 37 38 39 41 41 41 41 41 43 42 40 39 38 37 36 37 38 36 35 37 39 42 43 43 41 35 31 29 28 30 32 33 35 38 39 38 37 36 35 34 33 32 33 34 35 35 35 34 35 35 34 33 31 30 31 32 34 34 34 36 43 51 58 62 67 73 79 83 84 82 79 77 76 73 70 70 72 73 73
38 39 39 40 39 39 40 42 41 40 40 39 39 40 40 42 42 41 42 40 38 38 40 40 38 38 39 40 43 44 45 45 39 32 31 30 30 33 34 35 38 38 38 36 34 34 34 32 32 33 34 34 35 34 33 34 34 34 33 31 29 29 29 30 32 32 32 36 43 50 55 60 65 71 77 81 83 81 78 77 76 73 70 72 75 76
39 39 40 40 42 43 44 46 44 42 41 41 42 42 40 42 43 43 43 41 39 39 41 42 41 39 40 41 44 45 45 45 41 35 33 32 32 34 35 35 36 37 38 37 34 33 33 32 32 33 34 34 35 35 33 33 34 34 33 32 29 28 28 28 28 30 30 31 36 42 47 53 59 64 69 75 79 81 79 77 76 75 71 70 74 78
41 41 41 42 43 45 46 46 47 46 45 47 49 47 45 45 45 44 44 42 40 39 41 43 42 40 40 41 44 45 45 44 42 38 34 33 33 34 35 35 33 34 37 39 36 32 32 32 33 33 34 34 35 36 34 33 33 33 33 32 30 28 27 28 27 27 27 28 30 35 40 45 51 57 63 68 73 77 79 77 76 76 74 71 72 77
42 43 44 44 44 45 47 48 48 47 48 50 52 50 49 49 48 47 46 44 42 41 41 42 43 42 40 41 43 44 44 43 42 39 36 34 34 35 36 32 30 32 35 38 37 33 31 32 33 34 34 34 35 36 35 33 33 33 33 32 32 29 27 27 27 26 26 26 27 30 35 39 44 50 57 62 67 71 75 76 76 76 76 73 71 74
43 45 46 46 46 47 49 49 48 47 48 51 51 49 49 49 49 49 48 47 46 44 43 44 45 45 41 41 43 43 43 42 42 41 39 38 37 36 35 30 29 31 33 35 36 34 32 34 34 33 33 34 35 36 36 34 33 32 33 33 33 31 28 26 27 26 25 24 24 26 29 34 38 43 50 57 62 67 71 74 75 76 76 75 74 73
40 43 46 48 49 51 51 50 49 49 49 50 49 48 48 49 49 49 48 48 48 46 45 46 47 46 44 42 43 46 45 43 43 43 42 42 39 35 33 31 29 30 31 32 34 34 34 35 34 33 33 33 34 36 36 35 33 33 34 34 33 32 29 27 26 26 25 24 23 23 25 29 33 37 43 50 57 63 67 71 73 75 75 76 76 74
33 37 41 45 48 52 53 54 54 53 53 53 51 49 48 49 49 48 47 48 48 46 47 49 48 47 45 43 44 47 47 44 45 46 45 44 39 35 34 31 28 28 30 32 34 34 34 36 35 33 32 32 33 34 35 35 35 35 35 35 34 34 32 27 26 26 25 24 23 23 23 25 28 32 37 43 51 59 65 69 71 73 75 76 77 77
26 29 33 37 42 47 51 55 58 58 59 59 57 55 53 52 52 51 51 50 49 48 49 49 48 45 42 42 43 46 46 46 47 47 45 42 39 36 34 31 29 29 31 32 33 35 36 37 36 34 32 32 32 33 35 36 38 37 37 36 35 35 34 30 27 25 25 24 24 24 22 22 23 27 31 36 43 52 60 66 70 72 74 75 77 78
25 25 26 29 34 39 44 49 54 57 60 61 61 61 60 59 57 56 56 53 50 50 50 49 48 46 44 45 46 46 46 46 46 43 41 39 39 38 35 32 31 31 32 32 33 35 37 38 38 36 34 33 33 34 35 37 39 38 37 37 37 36 35 33 29 26 25 25 24 24 24 22 21 22 26 30 35 43 53 61 68 71 73 74 76 78
29 27 25 25 27 31 36 41 46 51 53 57 59 61 62 62 61 59 58 56 53 51 49 50 50 49 49 48 48 46 42 41 42 39 38 40 41 41 38 35 35 34 33 32 34 36 38 40 40 38 36 35 34 35 37 38 39 39 38 38 38 37 37 36 33 29 26 25 24 24 25 24 22 20 21 25 29 35 44 53 62 69 72 74 74 76
36 31 27 27 26 25 29 34 39 44 46 49 53 55 57 60 62 62 61 60 59 56 53 53 53 52 51 49 47 46 42 40 40 40 40 43 44 43 40 37 35 35 33 33 35 37 39 40 40 40 39 37 36 37 39 40 40 40 40 39 39 38 38 37 36 33 29 26 25 24 25 26 24 21 20 21 24 30 36 44 54 63 70 74 75 75
43 39 31 27 28 26 26 29 32 37 41 44 47 49 51 53 56 59 60 61 62 60 58 58 58 57 55 53 50 48 45 43 42 42 44 47 46 43 40 36 36 38 37 36 37 38 39 40 41 40 40 39 38 38 39 41 42 42 41 39 39 39 38 38 37 36 33 29 27 25 26 28 26 24 22 20 20 25 31 37 45 54 63 71 74 75
49 47 39 31 28 29 27 27 29 32 37 40 43 45 47 48 50 52 53 56 58 59 58 59 60 59 57 55 52 49 46 44 43 44 45 46 46 43 39 37 37 39 40 39 40 40 39 40 41 42 42 41 40 40 41 43 44 43 41 40 39 39 39 39 38 38 36 33 30 27 28 29 29 27 25 22 20 21 25 31 38 45 54 63 71 75
54 50 47 39 31 30 28 26 27 30 34 38 40 42 44 46 49 50 49 50 51 54 54 55 56 57 56 55 53 50 47 46 45 45 44 45 46 44 43 44 44 44 44 44 44 42 41 41 42 44 44 44 44 43 43 44 45 43 42 40 40 40 40 39 39 39 38 36 34 30 29 31 31 29 27 26 23 21 21 25 31 38 45 54 63 71
59 54 51 47 38 31 27 24 26 29 31 35 38 39 42 45 47 48 48 48 48 50 51 51 53 54 55 54 52 51 50 49 48 46 45 47 49 49 50 52 53 51 49 48 46 44 43 43 44 45 46 46 46 45 45 45 44 42 41 40 40 40 40 39 39 40 40 39 37 34 32 33 33 30 29 28 27 24 22 22 26 31 38 45 54 63
64 58 53 50 45 37 28 22 25 29 30 33 35 37 40 43 45 46 46 47 47 48 49 50 50 52 53 52 50 50 51 51 50 50 50 51 53 54 54 55 56 54 51 49 49 47 45 44 45 46 47 47 47 47 47 45 42 40 40 40 40 41 41 39 39 41 42 40 39 37 35 35 35 32 30 29 28 27 25 23 24 27 32 38 45 52
67 63 57 52 47 41 31 22 23 28 30 32 33 36 38 41 44 46 45 45 45 46 48 48 48 50 53 52 50 49 49 51 51 52 53 54 54 54 55 55 55 54 52 50 49 47 44 43 44 46 47 47 49 49 47 43 39 38 39 40 41 41 41 39 39 41 42 42 41 40 39 38 37 34 32 30 29 28 28 26 25 25 28 32 38 44
70 66 61 54 48 42 33 25 23 26 30 32 33 35 37 39 41 43 43 43 43 42 45 46 45 47 52 54 52 50 49 50 50 51 52 52 53 53 54 55 55 54 53 51 49 47 45 44 44 45 47 48 50 49 44 40 38 37 38 40 42 42 41 40 40 41 42 43 42 42 42 41 39 37 34 31 30 29 28 28 27 27 27 29 33 38
71 69 64 55 48 42 34 26 24 25 27 30 33 34 35 37 39 40 40 41 41 40 42 44 42 43 49 52 53 53 53 52 51 51 51 51 50 52 53 54 54 54 53 51 49 48 47 46 46 46 48 49 49 44 40 38 37 37 38 40 42 43 41 39 40 41 42 43 43 44 45 43 41 39 36 33 32 30 29 28 28 28 28 29 30 34
72 71 67 57 48 42 37 28 23 24 26 28 31 33 33 35 36 37 38 39 40 39 40 40 39 40 45 48 50 53 55 55 54 53 52 51 50 51 53 54 55 55 54 53 51 51 51 51 50 49 49 48 44 38 35 35 36 38 39 39 41 43 42 40 40 41 43 43 44 45 46 45 43 41 38 36 35 33 31 30 30 29 29 29 29 31
73 73 70 61 51 43 38 32 26 23 25 26 28 30 32 33 34 36 37 38 39 38 37 38 38 39 42 43 45 49 52 54 55 54 53 52 52 52 51 52 55 57 57 57 57 56 56 55 54 51 46 42 37 33 31 32 35 38 39 40 41 43 46 46 42 40 42 44 44 46 46 45 44 42 40 39 37 35 33 32 32 30 29 29 29 30
75 75 73 66 57 48 40 34 29 26 25 25 26 28 30 31 33 35 36 37 39 38 37 39 39 38 40 41 41 43 45 48 51 52 51 49 49 50 49 50 55 58 59 59 57 55 55 54 52 48 41 36 34 32 32 33 34 36 39 40 41 41 44 46 44 41 42 44 45 47 46 45 43 42 41 40 39 37 36 36 34 32 30 30 30 30
75 76 75 70 62 54 44 36 31 28 26 25 26 27 28 29 32 34 35 37 38 37 37 40 40 40 41 41 41 41 42 43 46 48 47 44 43 45 46 50 54 55 57 58 56 53 50 48 46 42 38 35 34 35 37 38 38 40 42 43 44 43 44 47 47 45 44 45 47 48 46 44 43 42 42 41 40 39 38 39 38 35 33 31 31 32
76 77 77 73 67 59 50 41 34 29 27 24 25 28 29 29 30 32 34 36 37 37 38 39 40 40 41 41 42 42 42 43 45 47 46 43 41 41 43 47 50 48 49 53 54 52 47 43 41 39 37 36 36 37 40 41 42 44 46 46 47 49 50 50 51 50 48 47 48 48 46 44 43 43 43 42 41 40 40 41 40 39 37 35 33 33
77 77 77 76 71 64 55 46 38 32 28 25 24 26 29 30 30 31 33 35 36 37 38 38 38 39 41 41 42 42 43 44 46 48 48 46 46 46 46 48 49 47 48 50 52 51 47 42 40 39 38 38 38 39 41 42 43 44 46 47 49 52 53 52 52 52 50 49 48 46 45 44 44 45 45 44 42 40 41 43 42 42 41 39 37 35
75 75 76 75 73 67 60 51 42 35 31 28 26 26 27 29 31 32 33 35 35 36 37 37 37 38 40 41 41 42 42 44 46 49 50 49 51 51 51 51 50 50 51 51 52 52 49 43 40 40 40 40 40 41 41 42 43 43 44 45 46 50 52 51 50 50 49 47 46 45 45 46 47 48 48 45 43 42 43 44 44 44 43 42 41 39
74 74 74 74 73 69 63 55 47 41 36 31 29 28 28 29 30 31 33 34 35 36 37 37 37 37 39 40 40 40 41 42 45 47 49 50 50 50 51 51 51 52 53 53 53 55 52 47 43 41 41 41 41 42 42 42 43 43 43 43 43 46 48 47 46 46 45 45 44 45 47 49 51 50 48 45 43 43 45 46 46 46 45 45 44 43
73 73 73 73 73 71 67 60 53 47 41 36 31 29 29 29 29 30 32 33 35 35 36 37 37 37 38 39 39 40 41 42 44 46 48 49 50 50 51 50 50 50 52 53 55 57 56 51 46 42 41 41 41 41 42 43 43 43 43 42 42 44 46 45 44 44 45 46 47 49 51 52 51 48 45 43 44 45 46 47 48 48 47 47 47 46
71 72 72 72 72 71 69 65 59 53 46 41 35 30 28 28 27 28 29 30 33 34 35 36 37 37 37 38 39 40 40 41 43 45 47 49 49 50 51 51 50 50 52 54 56 57 56 53 47 43 42 41 41 41 42 43 42 42 42 42 43 45 46 47 47 48 49 50 50 51 50 49 48 46 44 45 46 47 48 50 50 50 49 49 48 47
70 70 71 71 71 71 69 66 62 58 52 46 39 33 30 28 27 26 27 27 29 31 33 34 35 36 37 37 38 39 39 40 42 44 47 49 51 51 51 52 52 52 52 52 53 55 55 52 47 44 43 42 41 42 42 43 43 43 44 44 45 47 48 48 49 49 50 50 49 48 48 48 48 48 47 48 50 51 51 52 52 51 50 50 49 48
68 69 69 70 70 70 69 67 65 61 57 51 44 38 34 31 30 28 27 26 27 29 31 32 33 36 36 36 36 37 38 39 41 43 46 48 49 51 52 52 52 53 53 52 52 54 54 51 48 45 44 44 43 43 43 44 44 45 46 46 47 48 48 48 49 49 49 48 48 48 49 50 51 51 50 51 53 53 53 52 52 52 51 50 49 48
68 67 67 68 69 69 69 69 67 65 61 55 49 43 38 34 32 30 29 28 27 29 30 31 32 34 36 36 35 36 37 38 39 42 45 46 46 48 49 50 51 52 53 52 51 52 51 50 49 48 46 46 46 46 46 46 46 47 47 48 48 49 49 50 50 50 49 49 49 49 51 51 52 52 51 52 53 53 53 53 52 52 51 50 49 48
67 67 66 66 67 68 69 69 68 67 64 60 54 48 41 37 34 32 31 30 29 28 30 31 32 33 35 36 37 37 37 38 39 40 42 44 45 46 46 48 49 51 51 51 51 50 49 48 48 48 48 48 47 47 47 47 47 47 47 48 49 49 50 50 50 50 49 49 49 51 51 52 52 52 52 52 53 53 53 53 52 51 51 50 49 48
67 67 67 66 66 67 68 68 68 67 65 63 60 55 48 41 36 33 32 32 30 29 30 30 31 32 34 36 38 39 39 40 40 41 41 43 45 45 45 47 48 49 49 49 49 49 48 47 47 47 48 48 48 48 48 48 48 48 48 48 48 49 49 50 50 50 49 49 50 51 51 51 52 52 53 53 53 53 53 52 51 50 50 49 48 46
66 66 66 66 65 65 66 67 67 67 66 65 63 61 57 50 42 36 33 32 31 30 30 30 31 31 33 35 37 38 40 41 42 42 43 43 45 46 46 46 47 48 48 48 49 49 49 49 49 48 49 48 48 48 48 48 48 48 47 47 48 48 48 49 50 50 49 48 49 49 49 49 49 50 51 52 51 51 51 51 49 48 48 47 46 44
66 67 66 65 64 64 65 66 67 67 67 66 64 63 61 57 51 44 37 33 31 30 29 29 30 31 31 33 35 37 39 41 42 44 45 45 46 47 48 48 48 48 49 49 50 50 50 51 51 51 51 49 48 47 47 47 47 47 47 47 48 47 47 49 51 50 47 47 48 48 48 48 47 48 49 50 50 50 50 49 47 46 46 45 44 43
66 67 67 66 65 64 64 64 65 67 67 67 66 65 64 62 59 53 45 38 33 31 29 28 28 29 30 32 33 36 38 40 41 43 45 46 47 49 50 50 50 50 50 50 51 51 52 52 52 52 52 50 49 48 47 48 48 49 49 49 48 47 47 49 52 51 48 47 48 48 48 47 47 47 48 49 49 49 49 48 46 45 44 43 42 41
66 66 66 66 66 66 65 64 64 65 65 66 66 65 65 64 62 59 54 47 40 35 31 29 27 28 29 30 32 33 35 38 40 42 43 45 47 49 50 52 52 53 53 52 52 52 53 53 53 52 52 51 50 49 48 49 50 50 49 48 47 46 46 48 50 50 48 47 47 48 48 47 46 47 48 48 48 48 47 46 45 44 44 42 41 40
66 67 67 66 65 65 66 65 64 64 64 65 65 65 64 64 63 62 60 55 48 42 37 33 30 27 27 29 31 32 33 35 37 40 42 44 45 47 49 51 52 53 54 54 54 54 54 53 52 52 52 51 50 48 47 46 47 47 47 46 45 45 45 47 48 48 47 47 46 46 46 46 46 46 46 46 46 46 45 44 44 43 42 41 40 40
67 67 67 67 66 66 65 65 65 65 65 64 65 65 64 64 63 63 62 59 55 49 43 38 34 31 28 27 29 31 32 33 35 37 39 42 44 45 47 49 50 51 52 53 54 55 55 54 53 52 52 51 49 47 45 43 43 44 44 43 44 44 45 46 47 47 47 46 46 45 45 45 44 45 44 44 44 44 43 42 42 42 41 40 39 39
67 67 67 67 68 68 67 66 66 66 66 65 65 65 65 65 64 63 63 61 59 55 50 44 39 36 32 29 28 29 29 30 32 34 36 39 42 44 45 47 48 49 50 51 52 53 54 53 53 52 52 51 49 47 45 43 42 42 42 42 43 44 45 46 47 46 46 46 45 43 43 43 43 42 42 42 42 42 40 39 40 41 39 38 38 38
68 68 68 68 68 69 69 68 68 67 67 67 66 66 66 66 66 65 65 64 62 60 56 51 45 40 37 33 31 29 28 28 29 31 33 35 38 41 43 45 47 48 48 49 50 51 52 52 51 51 52 51 50 47 46 44 43 42 42 43 43 44 45 46 46 47 46 45 43 42 41 41 41 40 40 41 40 40 38 37 37 38 37 36 36 36
69 69 68 68 69 70 71 71 70 69 68 68 68 67 67 67 67 67 67 66 66 64 61 57 52 46 42 37 34 31 30 29 29 29 30 32 34 36 39 42 44 46 46 47 48 49 50 50 50 50 51 52 50 48 47 46 45 44 43 44 44 44 44 45 46 47 46 44 41 41 40 39 39 39 38 39 39 38 37 36 35 35 35 35 35 35
70 69 69 68 69 70 71 72 73 72 71 71 71 70 70 69 69 69 69 69 69 68 66 64 59 54 48 43 38 34 32 31 30 29 29 30 31 33 35 38 41 42 44 45 46 47 48 48 48 48 50 51 50 49 48 47 47 46 45 45 45 45 44 44 45 47 46 43 41 41 39 38 37 37 37 38 37 36 36 34 33 33 33 34 34 34
70 70 69 69 69 70 72 73 73 73 73 73 72 72 72 71 70 70 70 71 71 71 71 69 66 62 56 50 43 39 36 33 31 30 30 30 30 32 33 34 37 39 41 42 44 45 46 47 47 47 49 50 50 49 48 48 49 48 47 47 47 46 45 44 45 46 46 45 43 41 39 37 36 36 36 36 36 35 35 34 32 32 32 33 34 34
Wind_Direction
235 236 237 239 240 242 244 245 247 248 249 250 251 251 252 253 251 250 251 254 257 260 261 262 264 267 267 267 268 268 269 270 272 274 276 277 277 278 279 280 280 282 284 285 287 288 288 289 289 290 293 297 298 298 299 297 296 293 288 282 272 260 249 243 241 240 240 239 238 237 233 233 235 237 237 238 240 241 243 244 242 240 239 240 240 239
237 239 240 242 243 244 246 247 248 250 251 252 254 254 254 255 253 251 251 253 257 261 261 262 265 270 273 274 270 268 268 268 269 272 275 276 276 278 280 281 282 285 287 288 289 289 288 288 288 291 295 299 301 301 302 301 300 299 295 289 282 270 257 247 242 240 239 239 238 237 236 234 234 236 238 238 239 240 242 243 243 240 239 238 239 238
239 241 242 243 244 245 246 247 248 250 252 252 253 253 253 254 254 253 253 254 255 257 260 261 265 270 273 274 272 269 267 265 264 267 271 273 273 274 277 279 282 288 292 292 291 289 288 287 288 292 297 300 303 303 303 303 303 303 300 296 290 281 268 255 247 242 239 238 237 237 237 236 235 235 237 238 238 239 240 241 242 241 239 238 237 238
241 242 244 245 246 247 248 249 250 252 253 252 251 251 250 253 255 256 256 256 255 256 259 261 261 264 267 270 272 273 270 265 262 262 266 269 270 272 273 276 281 289 294 293 291 289 287 287 289 293 297 301 303 304 304 305 306 307 305 302 298 292 281 267 256 249 243 239 237 236 236 236 236 236 236 238 239 239 239 240 240 240 241 240 238 238
241 241 244 246 247 249 250 251 251 251 251 249 249 249 251 254 258 258 258 259 259 259 260 260 258 258 260 263 267 272 273 268 263 261 262 265 268 270 272 276 282 288 292 291 288 286 285 287 290 294 298 302 303 304 304 305 307 309 309 307 304 300 292 280 267 256 249 242 238 236 236 235 235 236 236 237 238 239 240 240 240 240 241 242 241 240
241 241 242 243 244 247 249 249 247 247 249 249 250 252 253 256 259 260 259 257 257 257 257 257 256 255 255 257 262 267 270 268 265 265 265 265 267 270 273 278 284 288 289 287 284 283 284 286 290 294 298 301 302 303 303 304 307 311 313 311 308 304 300 291 280 267 254 246 241 238 237 236 235 235 236 237 237 238 239 240 241 240 240 241 242 242
248 248 247 246 245 244 244 244 243 244 249 252 253 253 254 256 257 256 256 254 253 253 253 253 252 251 252 253 255 258 263 266 267 268 270 270 268 269 273 279 284 287 286 283 281 282 283 286 290 293 298 300 301 302 303 303 306 311 314 313 311 308 305 299 290 279 263 249 243 240 238 237 236 235 235 236 236 237 238 239 239 240 239 239 239 240
252 253 253 253 252 250 248 248 247 244 246 248 248 248 250 253 254 253 254 254 252 251 252 252 250 249 250 252 254 256 259 265 269 270 271 272 270 270 275 281 284 284 283 281 281 281 284 287 290 293 298 300 300 301 303 303 305 310 314 314 313 312 310 306 298 289 277 259 245 240 239 239 238 236 235 235 235 236 237 238 238 238 238 238 237 237
254 254 254 254 255 256 256 255 253 250 249 249 249 248 248 249 251 252 254 255 253 252 252 254 253 250 250 253 256 260 264 268 272 274 272 268 269 272 277 281 282 279 279 282 283 284 286 287 289 293 297 299 300 301 302 303 304 308 312 314 315 315 315 312 307 298 289 276 259 245 239 238 238 237 236 235 235 235 235 236 237 236 237 238 238 236
257 256 255 255 256 257 258 256 255 255 254 254 254 254 254 253 253 253 253 253 253 251 252 256 256 254 253 256 260 265 270 272 272 272 269 266 268 273 275 277 274 270 272 278 283 286 286 285 288 292 295 298 299 300 302 303 303 306 310 313 314 315 317 317 313 308 299 290 277 261 248 241 238 237 236 235 234 234 234 235 235 235 236 237 238 236
261 259 257 256 255 255 256 257 257 257 256 256 256 257 257 257 256 255 254 254 255 255 255 256 257 258 257 259 264 266 267 267 268 269 269 270 271 272 272 270 266 265 269 275 281 285 284 283 287 291 293 297 298 298 300 301 302 304 306 310 312 314 316 318 316 312 306 298 289 276 263 251 242 237 235 235 234 233 233 234 234 234 235 235 236 236
264 262 260 258 256 255 256 256 256 255 255 257 257 256 256 257 257 256 257 258 258 258 257 257 259 261 262 263 265 265 263 264 267 271 273 273 273 271 270 269 266 266 269 272 277 280 281 282 285 288 290 294 296 296 297 299 302 303 304 306 309 311 314 317 317 314 309 304 296 286 275 264 253 243 237 234 233 232 232 233 233 233 233 234 234 235
275 269 265 261 258 257 256 255 255 254 253 254 255 255 255 257 257 257 257 258 258 258 258 259 260 263 265 265 263 265 267 268 270 272 273 272 271 269 270 272 271 269 269 271 274 278 279 280 282 285 288 292 294 294 294 297 301 302 301 302 305 308 310 314 317 315 312 308 302 293 284 274 265 254 244 237 233 232 231 231 232 233 233 232 232 233
297 288 278 270 264 260 257 256 256 255 254 254 254 254 254 255 257 258 258 259 260 260 260 261 262 263 264 263 262 265 270 272 272 272 271 271 271 271 273 275 274 270 268 269 273 277 278 280 282 284 285 287 290 290 291 294 298 299 299 300 302 305 307 311 314 316 315 313 309 302 292 283 274 264 254 245 237 232 230 230 230 232 232 232 232 232
324 315 302 285 274 267 262 258 257 257 256 256 256 255 255 255 256 258 259 260 260 260 261 262 262 261 260 260 262 266 270 271 272 272 272 272 272 272 273 273 272 269 267 268 273 276 278 279 281 282 282 283 286 287 289 292 296 298 298 298 300 302 305 308 311 313 315 315 313 309 301 290 280 272 263 254 245 236 231 230 229 230 231 232 232 232
336 334 326 307 291 278 269 262 259 257 256 256 256 255 254 255 255 255 256 257 257 258 260 261 260 260 260 261 265 269 269 269 270 271 273 273 272 273 275 275 273 269 268 270 272 273 275 277 280 281 282 283 285 286 289 293 296 297 297 296 298 300 303 305 307 309 311 313 314 313 309 300 289 280 271 262 253 244 236 231 229 229 229 230 232 232
344 341 337 321 309 295 281 270 262 259 257 256 257 256 255 254 254 254 254 255 256 257 258 260 260 261 261 262 266 269 267 266 268 270 271 271 272 275 277 276 273 270 270 272 271 270 273 276 280 282 282 282 283 286 290 293 296 296 295 295 295 298 301 303 305 306 307 310 312 314 313 307 298 290 281 270 261 252 243 236 231 229 228 229 230 231
351 345 343 330 317 308 295 283 273 265 260 257 257 257 256 255 254 253 253 254 256 256 257 258 260 261 262 263 264 265 265 264 265 267 268 269 272 274 273 272 271 269 270 271 271 271 273 276 280 280 279 280 282 285 289 292 294 295 294 292 293 295 298 301 303 304 305 308 310 313 314 310 304 298 291 281 269 259 250 242 236 232 229 228 229 229
356 347 344 339 324 313 305 293 281 270 263 259 257 256 256 256 256 255 252 252 253 255 255 256 258 260 262 263 263 262 262 262 262 264 267 269 271 271 267 264 264 266 270 272 273 273 273 275 277 277 277 279 282 284 287 290 291 292 291 290 290 292 295 298 301 303 305 307 308 310 313 312 308 304 298 290 279 267 257 249 241 236 233 230 229 229
360 350 343 341 332 319 311 299 283 271 264 261 259 256 256 255 255 255 254 252 251 252 252 253 255 257 258 259 260 260 259 260 261 262 264 265 266 264 260 258 260 265 271 274 273 272 272 273 274 275 276 279 282 284 287 289 289 289 288 286 286 289 292 296 299 301 304 307 308 308 310 311 309 308 304 298 289 278 266 257 249 241 236 233 231 230
360 353 344 342 338 328 317 301 283 273 266 261 258 255 255 255 255 255 255 253 251 250 250 250 252 254 255 256 257 257 256 257 258 259 258 258 260 261 262 264 266 268 270 271 271 271 271 272 272 273 276 279 282 285 288 287 286 285 284 283 284 286 289 293 296 298 301 305 307 307 308 308 307 308 307 303 298 290 280 269 259 249 242 237 235 233
360 355 347 342 339 335 327 302 280 274 268 261 257 253 251 252 254 254 253 252 251 249 249 248 249 251 253 254 254 254 254 254 254 255 255 256 259 262 265 267 269 269 268 268 269 269 269 269 270 273 276 280 283 287 288 285 282 281 280 280 281 283 286 290 291 293 297 301 304 306 307 306 305 305 305 304 302 299 293 284 272 261 251 244 239 236
360 356 351 345 341 338 333 312 282 272 268 262 257 253 250 249 251 252 253 252 250 249 248 247 246 247 250 251 251 252 252 252 252 253 255 256 258 261 263 264 266 268 268 267 267 267 267 267 268 271 274 278 283 288 287 281 278 278 277 277 279 280 283 286 286 288 292 297 300 303 304 305 304 303 303 302 302 302 300 295 287 274 262 252 245 240
360 358 354 349 344 341 337 322 295 277 269 263 258 255 253 250 250 252 253 254 252 250 249 247 244 244 247 248 248 249 250 251 252 253 255 257 259 260 262 263 264 266 267 267 267 267 267 266 266 269 272 278 285 287 282 277 276 277 276 277 277 277 279 282 282 284 288 293 297 300 301 303 303 301 300 301 301 300 301 300 296 286 273 261 252 246
0 360 358 354 347 344 341 330 307 289 277 267 261 257 253 251 252 253 253 254 253 251 250 248 244 242 243 245 245 245 246 248 249 251 253 255 257 259 261 263 264 264 265 266 266 266 265 265 266 268 274 280 284 281 275 274 277 276 276 277 276 276 277 277 277 281 285 291 294 296 299 301 301 299 298 299 299 299 300 300 298 293 284 273 262 253
0 1 1 359 351 345 343 337 318 298 285 272 264 260 255 251 251 252 252 253 253 251 249 249 245 241 241 243 242 242 242 244 246 248 249 251 253 255 258 260 261 261 261 261 262 263 264 265 267 270 275 278 277 272 271 275 277 276 276 275 275 277 277 274 275 279 284 288 291 293 296 299 299 298 297 297 297 298 299 299 298 295 290 283 273 264
1 2 3 2 357 350 344 340 329 310 293 282 272 265 259 254 251 251 252 252 253 252 250 248 245 243 243 243 242 242 242 242 244 246 248 249 250 252 255 258 259 259 259 259 259 260 263 265 268 271 274 273 267 264 266 271 274 276 276 274 273 275 276 276 277 279 282 285 288 291 294 296 296 296 296 296 296 297 298 298 296 295 294 289 282 274
1 2 4 4 0 356 351 344 335 323 308 296 284 273 264 255 251 251 252 252 253 253 251 250 247 244 244 244 243 244 245 244 244 245 247 249 249 250 252 254 257 259 260 261 261 262 264 267 269 271 270 266 260 256 254 255 257 262 266 269 270 269 272 275 278 278 280 283 285 288 290 291 291 293 294 294 294 295 297 297 297 296 295 293 287 280
1 2 4 5 3 1 358 351 342 331 320 308 294 283 273 260 251 250 251 253 254 253 252 251 248 245 244 243 243 244 246 246 245 244 246 247 249 249 249 251 256 261 263 264 265 266 266 267 268 267 265 262 257 254 254 254 251 250 253 260 265 267 268 272 276 278 279 281 283 285 286 287 288 291 292 291 291 292 294 296 297 297 296 294 291 285
1 2 3 5 5 4 2 357 349 339 329 316 300 289 282 272 260 253 252 253 254 253 252 251 249 247 245 244 244 244 244 246 246 245 245 245 247 248 248 250 256 262 266 266 267 267 267 265 263 261 259 259 257 255 257 258 256 254 253 255 261 266 268 271 275 277 278 280 281 282 283 283 286 290 290 288 287 289 292 294 296 297 296 294 292 288
1 2 3 4 5 6 4 1 355 346 336 322 306 293 286 281 273 262 256 256 256 255 254 253 252 250 248 246 245 244 244 244 245 245 245 245 245 245 247 250 254 258 262 265 266 268 267 263 260 257 255 255 256 256 256 257 259 260 259 259 261 265 268 270 273 276 278 278 278 279 280 282 285 289 290 287 286 288 290 292 294 295 294 294 292 290
2 2 3 4 6 6 6 3 359 353 344 331 317 304 292 285 279 270 264 263 262 259 258 257 254 252 250 248 246 244 244 244 244 245 245 245 245 245 246 248 250 253 258 262 265 267 267 264 261 259 257 254 254 255 256 258 261 263 264 264 265 266 268 270 272 274 275 275 276 278 280 283 286 289 289 287 286 287 289 290 291 292 292 293 293 291
3 2 3 4 6 7 7 5 1 356 352 343 330 318 308 298 289 280 274 271 268 265 263 262 259 255 252 250 249 248 246 245 246 246 246 247 247 247 248 250 252 256 259 262 264 265 267 267 264 261 260 257 255 256 259 261 263 265 266 267 267 268 269 270 271 272 274 275 277 278 280 282 284 286 285 284 283 285 286 287 289 290 290 292 292 291
4 3 3 4 6 8 8 7 4 0 356 352 345 334 324 314 303 293 286 280 277 274 272 270 267 262 258 255 253 250 249 248 248 249 249 249 249 249 251 254 256 258 259 260 261 263 266 267 266 264 261 260 259 260 262 263 265 266 267 268 269 271 272 273 273 274 275 276 276 278 279 281 281 281 280 280 281 282 283 285 287 288 289 290 290 290
5 4 3 4 6 8 9 8 7 4 0 358 354 346 335 324 312 301 294 290 286 282 280 277 273 269 266 262 258 255 253 251 251 251 252 252 252 252 252 253 254 255 256 257 258 261 264 266 266 265 263 262 262 263 263 265 267 269 270 271 272 273 273 274 274 274 274 274 275 277 278 279 279 279 280 280 280 281 282 284 285 286 287 288 288 288
5 5 4 4 5 7 9 10 9 7 4 1 359 353 344 335 324 311 301 294 288 284 282 279 276 273 270 266 264 263 261 258 255 254 254 254 254 254 254 254 253 252 253 255 256 258 261 264 265 266 265 264 264 264 265 266 267 268 269 271 272 272 273 273 273 274 274 275 276 277 278 278 278 279 279 280 280 280 281 282 283 284 285 286 286 286
5 5 5 4 5 6 8 10 11 10 9 6 2 357 351 344 336 327 314 301 291 286 283 280 276 274 273 270 267 266 266 264 262 259 257 256 256 255 255 254 253 252 253 254 256 257 260 264 266 267 267 267 266 266 266 267 268 269 270 271 271 272 273 273 273 274 275 276 276 277 277 277 277 277 277 278 278 279 279 280 281 282 283 284 284 284
5 6 5 5 5 6 7 9 10 11 11 10 6 1 356 350 344 337 327 315 304 294 287 283 279 275 275 274 272 269 267 267 265 263 262 261 260 257 255 254 253 254 256 257 258 259 260 263 266 267 267 267 268 268 268 268 269 269 270 270 271 271 271 272 272 272 273 274 275 275 275 275 276 276 276 276 276 277 278 279 279 280 281 282 282 282
4 5 6 6 5 6 7 9 11 11 12 11 10 7 1 355 350 343 335 328 320 308 296 289 283 279 277 275 274 272 270 268 267 266 265 265 264 262 259 257 256 257 259 260 261 262 262 263 264 266 267 268 269 269 270 270 270 271 270 270 270 270 270 270 271 272 273 275 276 276 276 277 277 278 278 277 277 278 278 278 279 279 280 280 280 280
3 4 5 6 6 6 7 8 10 11 12 12 12 11 7 2 356 350 342 335 329 321 310 299 290 283 279 276 274 272 270 268 267 267 266 266 266 266 264 262 261 261 262 262 263 264 265 266 266 267 268 269 271 272 273 274 275 274 274 274 274 274 275 275 276 276 277 278 278 278 278 279 279 279 279 278 278 278 278 278 278 278 278 278 278 278
1 3 4 6 6 6 7 7 8 10 12 12 12 12 11 7 2 357 349 341 335 329 321 312 302 293 284 278 274 271 270 268 267 266 265 265 265 266 266 265 264 265 265 266 266 267 268 269 270 270 270 271 272 274 275 275 275 275 276 277 277 278 279 280 280 279 279 280 280 279 279 279 278 278 278 278 277 277 276 276 276 276 276 276 276 276
359 1 3 5 6 6 6 7 7 9 10 12 12 12 12 10 7 2 356 349 342 335 328 321 314 305 295 286 278 272 269 267 266 265 264 263 263 264 266 266 266 266 266 267 267 268 269 270 271 272 273 273 274 275 275 277 278 280 282 282 282 283 284 284 283 282 282 283 283 282 281 281 280 279 278 278 277 277 276 275 275 274 273 274 274 275
357 359 0 3 5 6 6 6 7 8 9 10 12 12 12 12 10 6 1 356 349 342 335 329 322 315 307 298 288 280 273 269 266 264 263 263 262 262 263 264 265 266 266 266 266 266 267 268 269 270 272 273 275 276 278 280 282 283 284 284 284 285 285 284 283 284 286 286 285 285 284 284 283 281 279 278 277 276 276 276 275 274 273 272 272 272
355 356 358 0 3 4 5 5 6 7 7 8 10 12 12 12 12 10 6 1 354 348 342 336 329 321 314 306 298 290 282 275 269 266 263 262 261 261 261 262 262 263 264 265 266 266 266 267 268 270 271 272 274 275 277 279 280 281 281 281 282 282 282 281 282 285 286 286 286 286 286 285 284 282 280 278 277 276 276 276 276 275 273 271 270 270
353 354 355 358 0 2 3 4 4 5 6 7 8 9 11 11 12 11 10 6 0 354 347 341 336 330 321 313 306 300 294 286 279 271 266 263 261 260 260 260 260 261 262 263 264 265 266 266 268 269 270 271 272 273 273 274 276 277 279 279 279 279 279 280 282 284 285 286 286 286 286 285 284 282 280 279 278 276 276 276 277 275 274 271 269 269
351 352 353 355 357 359 1 3 3 3 4 4 5 7 8 10 11 11 11 9 6 1 353 346 340 336 329 321 313 308 304 298 291 282 273 267 264 261 260 259 260 260 260 261 262 263 264 265 265 266 268 269 270 271 271 272 273 274 276 277 278 278 279 280 282 284 285 286 286 286 286 285 284 282 281 279 278 276 276 276 276 275 273 270 268 268
349 350 351 352 354 356 358 360 1 2 2 2 3 4 5 7 8 9 9 9 8 6 1 354 346 339 335 329 323 316 311 306 299 292 284 276 270 266 263 261 259 259 259 259 260 261 262 262 262 263 265 267 268 270 271 272 272 272 273 274 275 277 279 281 282 284 285 285 286 286 286 285 284 283 282 280 278 277 276 275 274 273 272 269 267 267
346 348 350 351 352 353 354 356 358 360 0 0 1 1 3 4 6 7 8 8 8 7 6 1 354 345 339 335 330 323 317 311 305 299 293 286 279 273 269 265 262 260 259 259 259 260 260 260 260 260 261 262 264 267 269 270 271 271 271 272 273 276 279 281 283 284 285 286 287 287 287 286 285 284 282 280 279 277 276 274 273 271 269 267 266 266
344 346 348 349 350 351 351 353 355 356 358 359 359 359 0 2 3 4 5 6 6 6 5 4 1 354 346 340 335 329 323 317 311 305 301 295 288 281 275 271 267 265 262 260 259 259 260 259 259 258 258 258 260 262 265 267 268 269 270 271 273 276 278 281 283 284 285 287 289 289 288 288 288 286 283 281 279 277 276 273 270 268 267 265 265 266
342 344 345 346 347 348 349 350 352 353 355 356 357 358 358 359 0 2 3 4 5 5 4 4 3 359 353 346 339 333 328 323 317 311 306 301 296 290 283 277 273 270 267 265 262 261 260 260 258 257 256 256 257 259 261 264 266 268 269 271 273 275 278 280 282 284 286 288 290 290 289 290 289 287 285 282 280 278 275 271 267 265 264 264 264 265
340 342 343 344 345 346 347 348 349 351 352 353 355 355 356 356 358 359 0 2 2 3 3 2 2 1 358 352 345 338 332 327 322 316 310 305 300 295 290 285 279 275 271 269 266 264 262 260 258 256 255 254 255 256 258 261 264 266 268 270 272 274 276 279 281 284 287 289 290 290 290 290 289 287 285 283 280 278 275 271 266 263 263 264 264 266
Height
10623 10625 10626 10626 10628 10629 10630 10631 10632 10633 10634 10636 10638 10639 10640 10638 10637 10639 10641 10641 10641 10642 10643 10642 10640 10639 10639 10642 10643 10644 10648 10650 10649 10647 10647 10647 10645 10642 10640 10637 10637 10639 10640 10637 10636 10635 10634 10633 10631 10629 10627 10626 10624 10623 10621 10619 10617 10615 10613 10612 10611 10612 10614 10617 10619 10621 10623 10625 10628 10632 10636 10640 10642 10645 10649 10650 10649 10652 10657 10662 10668 10674 10677 10680 10684 10687
10620 10622 10623 10624 10625 10626 10627 10627 10628 10630 10631 10633 10634 10635 10636 10632 10631 10635 10637 10638 10639 10639 10639 10638 10637 10635 10634 10635 10637 10639 10643 10646 10646 10644 10642 10642 10641 10638 10636 10633 10631 10634 10636 10633 10631 10630 10629 10629 10627 10624 10623 10621 10620 10618 10617 10614 10613 10611 10609 10607 10605 10605 10607 10609 10612 10614 10616 10618 10620 10624 10628 10632 10635 10638 10642 10644 10644 10646 10650 10655 10660 10666 10671 10674 10678 10681
10617 10619 10619 10620 10622 10622 10623 10623 10625 10626 10627 10629 10629 10630 10630 10625 10624 10630 10633 10634 10636 10636 10635 10636 10635 10633 10631 10628 10628 10631 10637 10641 10642 10641 10639 10638 10637 10635 10633 10630 10626 10628 10630 10628 10627 10625 10625 10625 10623 10621 10619 10617 10616 10614 10612 10610 10609 10607 10605 10602 10600 10599 10600 10602 10604 10606 10608 10610 10612 10615 10619 10623 10627 10630 10634 10637 10639 10641 10644 10647 10652 10658 10663 10668 10671 10674
10614 10615 10615 10616 10618 10618 10619 10620 10622 10622 10622 10623 10623 10623 10623 10619 10619 10626 10629 10629 10632 10633 10632 10632 10633 10631 10628 10625 10621 10623 10629 10634 10637 10638 10637 10634 10632 10632 10630 10627 10623 10623 10624 10623 10622 10620 10620 10619 10618 10617 10615 10613 10612 10610 10608 10607 10605 10603 10601 10598 10596 10594 10594 10595 10597 10599 10600 10603 10605 10607 10610 10614 10618 10622 10626 10629 10632 10635 10638 10641 10644 10649 10654 10660 10664 10667
10610 10611 10612 10613 10614 10614 10615 10616 10617 10616 10615 10615 10616 10616 10617 10615 10616 10622 10624 10625 10627 10629 10628 10627 10629 10628 10626 10623 10619 10617 10620 10625 10630 10634 10634 10632 10628 10627 10627 10624 10621 10620 10620 10618 10617 10616 10615 10615 10614 10612 10611 10609 10608 10606 10604 10603 10602 10600 10598 10595 10593 10591 10589 10589 10590 10592 10594 10595 10597 10600 10602 10605 10609 10613 10617 10621 10625 10628 10632 10635 10638 10642 10646 10650 10655 10659
10606 10607 10608 10609 10610 10610 10610 10609 10609 10609 10607 10609 10610 10612 10613 10612 10613 10616 10617 10620 10622 10623 10621 10620 10622 10623 10621 10619 10616 10613 10613 10616 10623 10628 10629 10629 10626 10623 10622 10620 10617 10616 10615 10614 10613 10612 10612 10611 10610 10608 10607 10605 10604 10602 10601 10599 10598 10597 10595 10592 10590 10588 10586 10584 10584 10586 10587 10589 10591 10593 10595 10598 10601 10604 10608 10612 10616 10620 10624 10629 10632 10636 10639 10642 10646 10650
10603 10604 10604 10605 10605 10605 10603 10601 10602 10604 10604 10605 10606 10607 10608 10607 10607 10609 10609 10612 10615 10615 10614 10614 10616 10616 10615 10613 10611 10609 10608 10610 10617 10623 10624 10625 10623 10620 10618 10616 10613 10611 10610 10610 10609 10608 10607 10607 10606 10604 10603 10601 10600 10598 10597 10596 10594 10593 10591 10590 10588 10586 10584 10582 10580 10580 10581 10583 10584 10586 10588 10591 10593 10596 10600 10603 10608 10612 10616 10621 10625 10629 10633 10635 10638 10641
10601 10601 10601 10601 10601 10599 10597 10597 10599 10601 10600 10599 10598 10600 10602 10600 10600 10601 10602 10604 10608 10609 10607 10606 10609 10611 10610 10607 10605 10605 10605 10607 10612 10618 10621 10620 10618 10616 10615 10613 10610 10606 10604 10604 10605 10604 10603 10603 10601 10600 10599 10597 10595 10594 10594 10593 10591 10590 10588 10587 10585 10584 10581 10579 10577 10575 10575 10576 10578 10580 10582 10584 10586 10589 10592 10595 10599 10604 10608 10612 10617 10622 10625 10629 10631 10633
10597 10597 10597 10597 10596 10595 10595 10594 10595 10596 10596 10593 10591 10594 10596 10594 10594 10595 10596 10598 10600 10602 10600 10600 10603 10605 10605 10603 10601 10600 10601 10603 10606 10612 10615 10615 10613 10612 10610 10609 10607 10603 10600 10597 10598 10599 10599 10598 10597 10596 10595 10594 10592 10590 10590 10589 10588 10586 10585 10584 10582 10581 10579 10576 10574 10572 10571 10571 10572 10574 10576 10578 10580 10582 10585 10588 10592 10596 10600 10604 10608 10613 10618 10621 10624 10626
10593 10592 10593 10593 10592 10591 10589 10588 10589 10591 10591 10587 10586 10589 10590 10589 10590 10591 10591 10592 10593 10595 10595 10594 10594 10598 10600 10599 10597 10596 10597 10598 10600 10603 10607 10608 10609 10607 10606 10606 10604 10601 10598 10594 10593 10594 10595 10594 10593 10593 10592 10590 10588 10586 10586 10585 10584 10583 10582 10580 10579 10578 10577 10575 10572 10570 10568 10567 10567 10568 10570 10572 10574 10576 10578 10581 10585 10588 10592 10596 10600 10605 10610 10613 10617 10620
10589 10588 10588 10588 10587 10585 10583 10583 10585 10585 10584 10581 10581 10585 10584 10584 10585 10585 10586 10586 10586 10589 10590 10588 10586 10589 10594 10595 10592 10592 10592 10591 10592 10595 10598 10601 10603 10602 10601 10602 10601 10598 10596 10593 10590 10590 10590 10590 10590 10590 10589 10587 10585 10583 10582 10582 10581 10580 10578 10577 10576 10575 10574 10573 10571 10568 10566 10565 10564 10563 10564 10566 10568 10570 10572 10574 10577 10581 10584 10588 10592 10597 10601 10605 10609 10613
10584 10582 10581 10581 10581 10579 10579 10579 10579 10579 10577 10575 10576 10579 10578 10577 10578 10579 10580 10580 10581 10583 10584 10581 10581 10583 10588 10590 10587 10584 10585 10587 10587 10588 10591 10593 10595 10596 10595 10596 10596 10595 10593 10590 10587 10586 10586 10586 10586 10586 10585 10584 10581 10579 10578 10577 10577 10576 10575 10574 10573 10572 10572 10571 10569 10567 10564 10562 10561 10560 10560 10560 10562 10564 10566 10568 10570 10573 10577 10580 10584 10588 10593 10597 10601 10605
10579 10577 10575 10574 10573 10572 10572 10572 10571 10572 10572 10570 10570 10572 10572 10570 10570 10573 10574 10574 10576 10578 10577 10575 10576 10579 10581 10583 10581 10577 10578 10582 10582 10581 10584 10585 10588 10590 10590 10591 10592 10590 10589 10587 10584 10582 10581 10581 10581 10581 10581 10580 10578 10576 10574 10573 10573 10572 10571 10571 10570 10569 10568 10568 10566 10564 10562 10560 10558 10556 10556 10556 10557 10558 10560 10562 10564 10566 10569 10572 10576 10580 10584 10588 10593 10596
10575 10572 10570 10568 10566 10565 10564 10563 10562 10563 10563 10563 10564 10566 10566 10565 10565 10566 10566 10567 10570 10571 10570 10570 10572 10574 10576 10576 10575 10574 10574 10575 10574 10574 10577 10579 10582 10584 10584 10586 10586 10585 10584 10582 10580 10578 10576 10575 10575 10576 10577 10576 10575 10573 10571 10570 10569 10569 10568 10567 10566 10565 10564 10564 10563 10561 10559 10557 10555 10553 10552 10552 10552 10553 10554 10556 10558 10560 10562 10565 10568 10572 10576 10580 10584 10589
10571 10568 10566 10563 10560 10558 10557 10556 10555 10555 10555 10555 10556 10557 10558 10559 10559 10559 10560 10561 10563 10564 10564 10565 10567 10569 10570 10569 10569 10570 10570 10569 10567 10568 10570 10572 10574 10576 10578 10580 10580 10579 10579 10578 10576 10574 10571 10570 10570 10572 10573 10573 10571 10569 10568 10567 10566 10565 10564 10563 10562 10561 10560 10559 10559 10558 10556 10555 10552 10550 10549 10549 10549 10549 10549 10550 10551 10553 10556 10558 10561 10564 10568 10573 10577 10581
10566 10564 10561 10557 10554 10552 10550 10549 10548 10546 10546 10546 10546 10548 10550 10551 10552 10553 10554 10555 10556 10558 10559 10559 10560 10562 10562 10563 10563 10565 10566 10564 10562 10563 10564 10564 10565 10567 10571 10573 10573 10573 10573 10573 10572 10570 10567 10566 10566 10567 10568 10569 10567 10565 10564 10563 10562 10561 10560 10559 10557 10556 10555 10554 10554 10554 10554 10552 10550 10548 10546 10544 10545 10545 10545 10545 10546 10547 10549 10551 10554 10557 10560 10564 10568 10573
10562 10559 10557 10551 10548 10546 10544 10542 10541 10539 10539 10539 10538 10538 10541 10543 10544 10545 10547 10548 10548 10552 10553 10551 10552 10554 10556 10558 10558 10558 10559 10559 10558 10558 10558 10556 10557 10560 10563 10564 10565 10566 10567 10568 10567 10565 10563 10562 10561 10562 10563 10564 10564 10562 10560 10559 10558 10557 10556 10555 10553 10552 10550 10550 10550 10550 10550 10549 10548 10546 10543 10541 10540 10540 10541 10541 10541 10542 10543 10544 10547 10549 10552 10556 10559 10564
10557 10553 10552 10548 10543 10540 10537 10535 10533 10533 10533 10532 10531 10531 10532 10533 10534 10536 10540 10541 10541 10544 10546 10544 10544 10546 10548 10551 10551 10551 10553 10554 10553 10553 10551 10550 10551 10555 10556 10557 10558 10558 10560 10561 10560 10560 10559 10557 10557 10557 10557 10558 10560 10559 10556 10554 10553 10553 10552 10551 10549 10547 10546 10545 10545 10545 10545 10545 10545 10543 10541 10538 10537 10536 10536 10537 10537 10537 10537 10538 10540 10542 10545 10548 10551 10555
10555 10547 10544 10543 10538 10534 10531 10529 10526 10526 10525 10524 10524 10524 10524 10525 10526 10527 10531 10533 10533 10535 10538 10538 10536 10538 10540 10542 10544 10545 10546 10547 10547 10547 10545 10544 10545 10548 10550 10551 10551 10551 10553 10555 10555 10555 10555 10554 10552 10552 10552 10553 10554 10555 10553 10551 10549 10548 10548 10547 10545 10544 10543 10542 10541 10540 10540 10540 10540 10540 10538 10535 10533 10533 10532 10532 10533 10533 10533 10533 10534 10536 10538 10541 10544 10547
10552 10544 10537 10535 10533 10528 10525 10523 10521 10518 10516 10516 10517 10517 10518 10518 10517 10518 10521 10523 10525 10527 10529 10531 10530 10530 10532 10534 10536 10539 10540 10540 10541 10541 10541 10539 10539 10541 10543 10543 10545 10546 10547 10548 10549 10550 10550 10550 10549 10547 10547 10547 10548 10549 10549 10547 10546 10544 10544 10543 10541 10540 10539 10538 10537 10535 10535 10536 10536 10536 10535 10532 10530 10529 10528 10527 10528 10528 10528 10528 10528 10530 10531 10533 10536 10539
10548 10541 10533 10527 10525 10523 10520 10517 10514 10511 10509 10508 10509 10510 10510 10510 10509 10511 10512 10514 10517 10519 10521 10523 10524 10523 10524 10527 10530 10532 10533 10534 10534 10535 10536 10534 10532 10534 10536 10536 10537 10541 10543 10543 10544 10545 10546 10545 10544 10543 10542 10542 10542 10543 10543 10543 10542 10541 10540 10539 10538 10537 10536 10535 10534 10531 10531 10531 10531 10532 10531 10529 10527 10526 10525 10524 10523 10523 10523 10524 10524 10524 10526 10527 10529 10532
10543 10537 10529 10522 10517 10515 10514 10512 10508 10504 10503 10502 10502 10503 10503 10502 10502 10503 10504 10506 10508 10510 10513 10515 10517 10516 10517 10520 10523 10525 10526 10527 10528 10528 10528 10529 10528 10528 10530 10529 10530 10533 10536 10537 10538 10539 10540 10541 10540 10538 10537 10537 10537 10537 10537 10537 10537 10537 10536 10535 10534 10533 10532 10532 10531 10528 10527 10527 10527 10527 10527 10526 10524 10523 10522 10521 10519 10518 10518 10519 10519 10520 10520 10521 10523 10525
10539 10532 10525 10518 10511 10507 10506 10505 10502 10498 10496 10495 10495 10495 10495 10495 10495 10494 10496 10498 10500 10502 10504 10507 10511 10511 10510 10512 10516 10518 10519 10520 10521 10521 10521 10522 10523 10523 10523 10523 10523 10525 10527 10530 10531 10532 10534 10535 10535 10534 10533 10532 10532 10532 10531 10531 10532 10532 10532 10531 10530 10529 10529 10529 10527 10524 10523 10523 10523 10522 10522 10521 10520 10519 10519 10517 10516 10515 10514 10514 10514 10514 10515 10516 10517 10518
10536 10529 10521 10513 10506 10501 10499 10498 10496 10493 10491 10489 10489 10488 10489 10489 10489 10489 10491 10492 10494 10496 10497 10499 10505 10506 10504 10505 10509 10511 10512 10512 10513 10514 10514 10515 10516 10517 10517 10517 10518 10519 10519 10522 10523 10525 10527 10529 10529 10529 10528 10528 10527 10527 10526 10525 10526 10527 10527 10527 10526 10525 10525 10524 10523 10520 10519 10519 10519 10518 10517 10516 10516 10515 10514 10513 10512 10511 10510 10510 10509 10509 10509 10510 10511 10512
10533 10526 10518 10509 10501 10495 10493 10492 10490 10487 10486 10484 10483 10483 10484 10484 10484 10484 10485 10486 10488 10490 10489 10492 10498 10500 10497 10498 10501 10503 10504 10505 10507 10507 10508 10509 10511 10511 10510 10511 10512 10512 10513 10515 10516 10518 10520 10521 10523 10524 10524 10524 10523 10522 10521 10521 10521 10522 10523 10523 10520 10519 10520 10520 10518 10516 10515 10515 10515 10513 10511 10511 10511 10510 10509 10509 10508 10507 10506 10506 10504 10504 10504 10504 10505 10506
10530 10523 10516 10507 10498 10491 10486 10485 10484 10482 10480 10480 10479 10478 10479 10479 10479 10479 10479 10480 10481 10483 10484 10486 10490 10491 10489 10491 10493 10495 10496 10498 10499 10500 10502 10504 10505 10505 10504 10505 10505 10505 10507 10509 10509 10511 10513 10514 10516 10518 10520 10520 10519 10518 10517 10517 10517 10516 10517 10518 10516 10513 10513 10514 10514 10513 10511 10511 10510 10508 10507 10506 10505 10504 10504 10503 10502 10501 10501 10501 10500 10499 10499 10499 10500 10500
10527 10520 10513 10505 10497 10489 10483 10480 10479 10477 10475 10474 10474 10474 10474 10475 10474 10473 10473 10474 10474 10476 10478 10479 10481 10483 10483 10485 10487 10487 10489 10491 10492 10493 10495 10497 10499 10499 10499 10498 10497 10498 10499 10501 10503 10505 10506 10508 10510 10512 10515 10516 10515 10515 10515 10515 10514 10512 10511 10511 10510 10509 10507 10506 10508 10509 10507 10507 10506 10504 10502 10501 10500 10499 10498 10497 10496 10496 10496 10495 10494 10494 10495 10495 10495 10494
10523 10516 10509 10502 10494 10488 10482 10477 10474 10472 10470 10470 10470 10470 10470 10470 10469 10468 10468 10468 10468 10471 10472 10472 10474 10476 10476 10478 10481 10481 10483 10485 10486 10488 10490 10491 10491 10492 10493 10492 10489 10490 10491 10493 10496 10499 10501 10502 10503 10505 10508 10510 10511 10510 10510 10511 10511 10509 10507 10505 10504 10505 10503 10500 10501 10504 10503 10502 10501 10500 10499 10497 10495 10494 10494 10492 10491 10491 10490 10489 10489 10489 10490 10490 10489 10489
10522 10514 10507 10500 10493 10486 10481 10476 10472 10469 10467 10466 10466 10465 10465 10466 10465 10464 10463 10463 10463 10465 10466 10466 10467 10469 10470 10471 10474 10475 10477 10478 10480 10481 10483 10484 10485 10486 10487 10485 10483 10483 10484 10485 10488 10491 10494 10496 10496 10498 10501 10503 10504 10505 10504 10505 10505 10504 10502 10500 10499 10500 10500 10497 10496 10497 10499 10498 10496 10495 10494 10492 10491 10490 10489 10488 10487 10486 10484 10483 10483 10484 10484 10484 10484 10483
10519 10511 10504 10498 10492 10485 10479 10474 10470 10467 10465 10464 10463 10461 10460 10461 10461 10460 10459 10459 10459 10460 10460 10459 10460 10462 10464 10466 10467 10469 10471 10472 10473 10474 10476 10477 10478 10480 10481 10480 10479 10480 10479 10479 10480 10482 10486 10489 10489 10491 10494 10495 10497 10499 10499 10499 10498 10497 10497 10496 10496 10494 10494 10493 10492 10491 10493 10492 10491 10490 10488 10487 10486 10485 10484 10483 10482 10481 10479 10478 10478 10478 10478 10478 10478 10477
10519 10511 10503 10496 10490 10484 10478 10473 10469 10465 10463 10461 10460 10458 10457 10456 10456 10457 10455 10454 10454 10454 10454 10454 10455 10456 10458 10460 10461 10463 10464 10465 10466 10467 10469 10470 10471 10473 10474 10473 10474 10474 10473 10473 10473 10475 10478 10481 10482 10485 10487 10489 10490 10491 10492 10491 10491 10491 10491 10491 10491 10489 10488 10488 10487 10486 10486 10486 10485 10483 10482 10481 10481 10480 10479 10478 10477 10475 10474 10473 10473 10472 10472 10472 10471 10471
10522 10513 10505 10498 10491 10484 10478 10472 10468 10464 10462 10459 10457 10455 10454 10453 10453 10452 10451 10450 10449 10449 10449 10449 10451 10451 10452 10453 10455 10457 10458 10459 10459 10460 10462 10464 10465 10466 10466 10466 10467 10468 10467 10467 10467 10468 10470 10474 10476 10478 10480 10482 10483 10484 10484 10484 10484 10484 10485 10485 10485 10483 10481 10482 10482 10480 10480 10479 10478 10477 10476 10475 10474 10473 10472 10472 10471 10470 10468 10467 10467 10466 10465 10465 10465 10464
10523 10515 10508 10501 10493 10486 10479 10473 10467 10463 10460 10458 10455 10453 10451 10450 10449 10449 10447 10446 10446 10446 10445 10445 10445 10446 10447 10448 10449 10451 10452 10453 10453 10454 10456 10457 10459 10459 10459 10460 10461 10461 10461 10462 10462 10461 10463 10467 10469 10471 10473 10475 10476 10477 10477 10477 10477 10477 10478 10478 10478 10476 10474 10475 10475 10474 10473 10472 10472 10471 10470 10469 10468 10468 10467 10466 10465 10464 10462 10461 10460 10460 10459 10459 10458 10458
10524 10516 10509 10502 10495 10486 10479 10473 10467 10462 10459 10456 10454 10451 10449 10447 10446 10445 10444 10444 10443 10442 10442 10441 10441 10442 10443 10443 10444 10445 10446 10447 10448 10448 10450 10451 10452 10453 10453 10454 10455 10455 10455 10456 10456 10455 10456 10459 10462 10465 10466 10468 10469 10470 10470 10470 10470 10470 10471 10471 10471 10469 10467 10467 10468 10467 10466 10466 10466 10465 10464 10463 10462 10461 10461 10460 10459 10458 10456 10455 10454 10453 10453 10452 10452 10451
10524 10518 10510 10503 10496 10489 10481 10473 10467 10462 10458 10454 10452 10449 10447 10445 10443 10442 10441 10440 10439 10439 10439 10439 10438 10438 10439 10440 10440 10440 10441 10441 10442 10442 10443 10444 10445 10446 10446 10447 10447 10448 10449 10449 10450 10450 10450 10452 10455 10458 10460 10461 10463 10463 10463 10463 10463 10463 10463 10463 10463 10462 10461 10460 10460 10460 10459 10459 10459 10459 10458 10456 10454 10454 10454 10453 10452 10451 10450 10449 10447 10446 10446 10446 10445 10444
10526 10519 10511 10504 10497 10491 10485 10477 10470 10463 10457 10453 10450 10447 10444 10442 10440 10439 10437 10436 10435 10435 10435 10436 10435 10434 10435 10436 10436 10436 10437 10437 10437 10437 10437 10437 10438 10439 10439 10439 10440 10441 10443 10443 10444 10444 10444 10446 10449 10451 10453 10455 10456 10457 10456 10456 10456 10456 10456 10457 10456 10455 10454 10454 10453 10453 10452 10452 10452 10452 10451 10449 10447 10447 10448 10447 10445 10444 10443 10442 10441 10440 10439 10439 10438 10438
10527 10520 10513 10506 10499 10493 10486 10480 10472 10465 10458 10452 10448 10445 10442 10439 10437 10436 10434 10433 10432 10431 10431 10431 10432 10431 10431 10431 10432 10432 10432 10432 10432 10432 10431 10431 10432 10432 10432 10433 10434 10435 10436 10437 10438 10438 10438 10440 10442 10444 10446 10447 10449 10450 10450 10450 10450 10450 10450 10450 10449 10448 10447 10447 10446 10446 10446 10446 10446 10445 10444 10442 10441 10441 10441 10440 10438 10437 10436 10435 10434 10433 10433 10433 10432 10431
10527 10521 10515 10507 10501 10494 10487 10480 10473 10466 10460 10454 10449 10444 10441 10437 10435 10433 10431 10430 10429 10428 10426 10426 10427 10427 10426 10426 10426 10427 10427 10427 10427 10427 10426 10426 10426 10427 10427 10428 10428 10429 10430 10431 10432 10433 10434 10435 10436 10437 10439 10440 10441 10442 10443 10443 10443 10443 10443 10443 10443 10442 10441 10440 10440 10439 10440 10440 10439 10438 10436 10435 10434 10434 10434 10432 10431 10430 10429 10428 10428 10427 10426 10426 10425 10425
10527 10521 10516 10509 10501 10495 10489 10482 10475 10468 10462 10456 10451 10446 10441 10437 10433 10430 10428 10426 10426 10425 10423 10422 10421 10421 10421 10421 10421 10421 10421 10421 10421 10421 10421 10421 10421 10421 10422 10423 10423 10423 10424 10425 10426 10427 10429 10430 10430 10431 10432 10433 10434 10434 10436 10436 10437 10437 10437 10437 10436 10435 10435 10434 10433 10433 10433 10433 10432 10430 10429 10428 10427 10426 10426 10424 10423 10423 10422 10421 10421 10420 10419 10419 10418 10418
10527 10521 10515 10509 10502 10495 10489 10483 10478 10472 10465 10458 10452 10447 10442 10438 10434 10430 10426 10423 10422 10421 10420 10418 10417 10416 10416 10415 10415 10415 10415 10415 10415 10415 10416 10415 10415 10415 10416 10417 10417 10418 10419 10420 10420 10420 10422 10424 10425 10425 10426 10426 10427 10427 10428 10429 10429 10429 10429 10429 10428 10427 10426 10426 10425 10424 10424 10425 10423 10422 10420 10420 10419 10418 10417 10416 10415 10414 10413 10413 10413 10413 10412 10412 10411 10411
10526 10521 10515 10509 10503 10496 10490 10484 10478 10473 10467 10460 10453 10447 10442 10438 10434 10431 10426 10422 10419 10418 10416 10414 10413 10412 10411 10410 10409 10409 10409 10410 10410 10410 10410 10410 10409 10409 10410 10411 10412 10412 10413 10414 10414 10414 10415 10416 10417 10418 10418 10419 10420 10421 10420 10421 10421 10420 10420 10420 10420 10419 10418 10417 10415 10414 10416 10416 10415 10413 10412 10412 10411 10410 10408 10407 10407 10406 10405 10404 10405 10405 10405 10404 10404 10404
10523 10519 10514 10509 10504 10498 10491 10485 10478 10472 10467 10461 10456 10449 10443 10438 10433 10430 10427 10422 10418 10415 10413 10411 10409 10408 10406 10405 10404 10403 10403 10403 10404 10403 10403 10403 10403 10403 10403 10404 10406 10406 10407 10408 10408 10408 10409 10409 10409 10409 10410 10411 10413 10414 10413 10413 10413 10412 10412 10412 10411 10410 10410 10408 10405 10405 10408 10408 10406 10405 10404 10404 10403 10402 10400 10399 10398 10397 10396 10396 10397 10397 10397 10397 10397 10397
10522 10517 10513 10508 10503 10498 10492 10486 10479 10473 10467 10461 10456 10450 10444 10439 10434 10429 10425 10422 10418 10414 10410 10408 10406 10404 10402 10400 10399 10397 10397 10397 10397 10397 10397 10397 10397 10397 10397 10398 10398 10399 10400 10401 10402 10402 10402 10402 10402 10402 10403 10404 10405 10406 10406 10406 10405 10404 10404 10404 10403 10404 10403 10400 10397 10397 10399 10400 10398 10397 10396 10396 10395 10394 10392 10391 10390 10389 10388 10388 10389 10389 10389 10389 10390 10390
10521 10516 10511 10506 10501 10496 10491 10486 10481 10475 10469 10463 10458 10452 10446 10441 10435 10429 10424 10420 10417 10413 10409 10406 10403 10401 10398 10396 10394 10392 10391 10390 10390 10391 10391 10391 10391 10391 10391 10391 10391 10392 10393 10393 10394 10394 10394 10395 10395 10395 10396 10397 10398 10399 10400 10400 10399 10398 10398 10397 10397 10398 10397 10394 10391 10391 10392 10392 10391 10389 10388 10387 10387 10385 10383 10382 10382 10381 10380 10380 10381 10381 10381 10382 10382 10383
10518 10513 10509 10505 10500 10496 10491 10486 10481 10476 10470 10464 10459 10454 10448 10442 10436 10431 10425 10420 10415 10411 10407 10403 10400 10398 10395 10392 10389 10387 10386 10385 10384 10384 10384 10384 10384 10384 10384 10384 10384 10385 10386 10386 10386 10386 10387 10388 10389 10389 10389 10389 10391 10393 10395 10395 10394 10392 10391 10391 10391 10391 10390 10388 10387 10386 10386 10385 10385 10383 10381 10380 10378 10376 10375 10374 10373 10373 10373 10373 10373 10373 10373 10374 10375 10375
10515 10511 10506 10501 10497 10493 10489 10484 10479 10474 10469 10464 10458 10453 10448 10443 10437 10431 10426 10420 10415 10410 10405 10401 10397 10394 10392 10389 10386 10383 10382 10381 10379 10378 10378 10377 10377 10377 10377 10377 10377 10378 10378 10379 10379 10379 10379 10381 10382 10383 10383 10383 10384 10385 10387 10389 10388 10386 10385 10385 10385 10384 10384 10382 10381 10381 10380 10379 10378 10377 10375 10373 10371 10370 10368 10367 10366 10366 10366 10367 10366 10365 10366 10367 10367 10368
10513 10508 10503 10498 10493 10489 10485 10481 10477 10472 10467 10461 10456 10451 10446 10441 10436 10431 10425 10420 10415 10410 10404 10399 10395 10391 10388 10385 10382 10380 10378 10376 10374 10373 10372 10371 10370 10370 10370 10370 10370 10370 10371 10371 10372 10372 10372 10373 10375 10376 10376 10376 10377 10378 10380 10381 10381 10380 10380 10380 10379 10377 10377 10376 10375 10375 10374 10373 10371 10370 10369 10367 10365 10364 10362 10360 10359 10359 10360 10360 10359 10358 10359 10360 10360 10361
10509 10504 10499 10495 10490 10485 10481 10477 10473 10470 10465 10459 10454 10449 10443 10438 10433 10428 10423 10418 10413 10408 10403 10398 10393 10388 10385 10382 10379 10375 10373 10371 10369 10367 10366 10365 10365 10364 10363 10363 10363 10363 10363 10364 10364 10364 10364 10365 10367 10368 10369 10369 10370 10371 10372 10373 10373 10374 10374 10373 10373 10372 10371 10370 10369 10368 10367 10366 10365 10364 10363 10361 10359 10357 10355 10354 10353 10353 10353 10354 10353 10352 10352 10353 10354 10355
10505 10500 10496 10491 10487 10482 10477 10472 10468 10465 10461 10457 10451 10446 10441 10436 10430 10425 10420 10415 10410 10405 10400 10396 10392 10387 10382 10379 10375 10372 10368 10366 10364 10362 10361 10360 10359 10358 10357 10356 10356 10356 10356 10357 10357 10357 10357 10358 10360 10361 10361 10361 10363 10364 10365 10365 10366 10367 10367 10366 10366 10366 10366 10365 10363 10361 10360 10360 10359 10357 10356 10355 10353 10351 10349 10348 10347 10347 10347 10347 10347 10346 10346 10347 10348 10349
10501 10497 10492 10488 10484 10479 10475 10469 10464 10459 10454 10450 10446 10441 10436 10432 10427 10422 10417 10412 10407 10402 10396 10392 10388 10384 10380 10376 10372 10368 10365 10362 10359 10357 10355 10354 10352 10351 10351 10350 10349 10349 10349 10349 10350 10350 10350 10351 10352 10353 10353 10354 10355 10357 10358 10358 10358 10358 10359 10359 10359 10359 10359 10358 10357 10354 10353 10353 10353 10351 10350 10349 10347 10345 10343 10342 10341 10341 10341 10341 10342 10341 10341 10341 10342 10343
10497 10493 10489 10484 10480 10476 10471 10467 10462 10457 10452 10447 10443 10438 10434 10429 10424 10420 10414 10409 10404 10399 10394 10388 10384 10380 10377 10373 10369 10365 10361 10357 10355 10352 10350 10349 10347 10345 10344 10343 10343 10342 10342 10342 10342 10342 10343 10343 10344 10345 10345 10346 10347 10349 10350 10351 10350 10351 10351 10352 10352 10352 10352 10352 10350 10348 10347 10346 10346 10344 10344 10343 10341 10340 10338 10336 10335 10335 10335 10335 10336 10336 10336 10336 10336 10337